[[{"header":{"parameterUnit":"m.s-1","parameterCategory":2,"la1":30.2991,"la2":30.254,"lo1":-89.0895,"lo2":-89.0444,"dx":0.0017,"dy":0.0017,"nx":28,"ny":28,"refTime":"2023-01-02T15:00:00:Z","depth":"0","parameterNumber":2,"parameterNumberName":"U-component_of_CURRENTS"},"data":[0,0,0,0,0,0,0,0,0,0,0,0,0,0,0,0,0,0,0,0,0,0,0,0,0,0,0,0,0,0,0,0,0,0,0,0,0,0,0,0,0,0,0,0,0,0,0,0,0,0,0,0,0,0,0,0,0,0,0.1148,0.1148,0,0.1149,0.1149,0.1149,0.1128,0.1128,0.1128,0.1127,0.1103,0.1103,0.1103,0,0,0,0,0,0,0,0,0,0,0,0,0,0.1127,0.1127,0.1148,0.1148,0.1148,0.1149,0.1149,0.1149,0.1129,0.1128,0.1127,0.1127,0.1103,0.1103,0.1103,0,0,0,0,0,0,0,0,0,0,0,0,0,0.1132,0.1128,0.1148,0.1139,0.1139,0.1149,0.1149,0.1149,0.1129,0.1128,0.1127,0.1127,0.1103,0.1103,0.1103,0.1114,0,0,0.1102,0.1101,0,0,0,0,0,0,0,0,0.1131,0.1132,0.114,0.114,0.1139,0.1139,0.1133,0.1136,0.1129,0.1131,0.1127,0.1126,0.1114,0.1113,0.1113,0.1113,0.1111,0.1102,0.1101,0.1101,0.1101,0,0,0,0,0,0,0,0.1131,0.1132,0.1147,0.1141,0.114,0.1135,0.1135,0.1133,0.1125,0.1131,0.113,0.1132,0.1113,0.1114,0.1112,0.1111,0.1102,0.1101,0.1101,0.1101,0.1182,0.1184,0,0,0,0,0,0,0.1135,0.1132,0.1147,0.1147,0.1135,0.1136,0.1135,0.1139,0.1125,0.1123,0.1133,0.1131,0.1114,0.1113,0.1111,0.1173,0.1101,0.1101,0.1101,0.118,0.1182,0.1185,0,0,0,0,0,0,0.1134,0.1136,0.1147,0.1141,0.1142,0.1137,0.1141,0.1139,0.1146,0.1127,0.1124,0.1142,0.1114,0.1112,0.1127,0.1169,0.1101,0.11,0.1177,0.118,0.1184,0.1263,0,0,0,0,0,0,0.1133,0.1136,0.1143,0.1141,0.1142,0.1167,0.1141,0.114,0.1149,0.1147,0.1135,0.1131,0.1113,0.1128,0.1127,0.1168,0.11,0.1174,0.1178,0.1183,0.1258,0.1269,0.1279,0,0,0,0,0,0.1133,0.1146,0.1144,0.1146,0.1151,0.1169,0.117,0.1162,0.115,0.1164,0.1157,0.1132,0.1156,0.1129,0.1127,0.1169,0.1172,0.1177,0.1182,0.1253,0.1267,0.1279,0,0,0,0,0,0,0.1141,0.1145,0.1142,0.1156,0.1169,0.1166,0.1177,0.1172,0.1177,0.1175,0.1151,0.1149,0.1181,0.1167,0.1139,0.1209,0.1164,0.1169,0.1219,0.1232,0.1242,0.1245,0.11,0,0,0,0,0,0.1148,0.1158,0.1164,0.1178,0.1185,0.1184,0.119,0.1188,0.119,0.1192,0.1183,0.1185,0.1202,0.1209,0.1214,0.1245,0.1256,0.1277,0.1287,0.1296,0.13,0.1362,0.1379,0.1202,0.1202,0.1202,0,0,0.1154,0.1159,0.1164,0.1181,0.1186,0.1208,0.1186,0.1204,0.1226,0.1189,0.1215,0.1217,0.1219,0.1258,0.1272,0.125,0.1356,0.1303,0.131,0.1309,0.1369,0.1386,0.1402,0.1206,0.1205,0.1205,0,0,0.1177,0.118,0.1198,0.1212,0.123,0.1232,0.1242,0.125,0.1259,0.1284,0.1274,0.1306,0.1312,0.1336,0.1345,0.142,0.1408,0.1425,0.148,0.1541,0.1556,0.1569,0.1618,0.1635,0.1432,0.1432,0.1432,0,0.1184,0.1207,0.1208,0.1233,0.125,0.1247,0.1276,0.129,0.1303,0.1322,0.1303,0.1356,0.1355,0.1421,0.1449,0.1445,0.1469,0.1428,0.1555,0.1568,0.158,0.1626,0.1644,0.1437,0.1436,0.1436,0.1435,0,0.1222,0.1243,0.1258,0.1287,0.1307,0.1333,0.1351,0.1374,0.1379,0.1393,0.1452,0.1461,0.1492,0.1512,0.1499,0.1594,0.1581,0.1559,0.1519,0.1602,0.1646,0.1663,0.1443,0.1441,0.144,0.1439,0,0,0.1228,0.1275,0.128,0.1301,0.1337,0.1355,0.1402,0.1445,0.1477,0.1504,0.1556,0.1604,0.1607,0.162,0.1625,0.1681,0.1792,0.1659,0.166,0.1701,0.1926,0.1976,0.1998,0.1791,0.1795,0.1797,0.1927,0,0.1258,0.1309,0.1328,0.1378,0.1405,0.1427,0.1467,0.1506,0.1537,0.1585,0.1624,0.1668,0.1651,0.1672,0.1731,0.1765,0.1837,0.1758,0.1844,0.1846,0.1876,0.202,0.1996,0.2116,0.1943,0.1946,0.1948,0,0.1287,0.1317,0.137,0.142,0.1434,0.1463,0.1525,0.1564,0.1634,0.1661,0.172,0.1736,0.1821,0.1791,0.1915,0.1863,0.1909,0.194,0.1945,0.1973,0.1928,0.2004,0.2152,0.2127,0.1973,0.1971,0.1969,0,0.1284,0.1344,0.1385,0.1404,0.1461,0.149,0.1521,0.1586,0.1634,0.1712,0.1759,0.1835,0.1893,0.1953,0.2024,0.1971,0.2167,0.2094,0.2191,0.2193,0.2182,0.2179,0.2311,0.2212,0.2212,0.2211,0.2211,0,0.1303,0.1333,0.1383,0.1404,0.1449,0.149,0.1551,0.1591,0.1676,0.1748,0.1795,0.1885,0.1941,0.2049,0.2077,0.2213,0.2218,0.2242,0.2253,0.2211,0.221,0.219,0.2146,0.2216,0.2215,0.2214,0.2213,0,0.129,0.1328,0.137,0.1429,0.1447,0.1476,0.1558,0.1604,0.1687,0.1788,0.1819,0.1954,0.21,0.2176,0.2301,0.231,0.2363,0.2454,0.2404,0.2407,0.2428,0.2388,0.2384,0.2306,0.2556,0.2558,0.256,0,0.1287,0.1308,0.1369,0.139,0.1415,0.1467,0.1503,0.1593,0.1652,0.1839,0.1891,0.2078,0.2208,0.2426,0.2505,0.2607,0.2497,0.2623,0.2521,0.248,0.2441,0.227,0.2189,0.2533,0.2535,0.2536,0.2537,0,0.1274,0.1295,0.1326,0.1368,0.1405,0.1452,0.1515,0.1566,0.1689,0.1802,0.198,0.2108,0.2366,0.2501,0.2664,0.27,0.251,0.2653,0.2628,0.2477,0.228,0.2192,0.2381,0.2549,0.2548,0.2547,0.2546,0.2546,0.1254,0.1267,0.1306,0.1343,0.1382,0.1422,0.1451,0.1542,0.1651,0.1817,0.1984,0.2183,0.2439,0.2681,0.27,0.2755,0.2637,0.2692,0.266,0.2498,0.2391,0.2618,0.2784,0.2784,0.2784,0.2784,0.2785,0,0.123,0.1249,0.1279,0.1319,0.1342,0.1381,0.1449,0.1484,0.1592,0.1807,0.1977,0.2294,0.2486,0.2649,0.2829,0.278,0.2569,0.2713,0.2461,0.2387,0.2641,0.2611,0.2725,0.2725,0.2725,0.2725,0.2725,0.2725,0.1219,0.1237,0.1254,0.1273,0.1298,0.1319,0.1347,0.1414,0.1553,0.1785,0.1997,0.2188,0.2525,0.2801,0.2859,0.2784,0.2541,0.2467,0.2388,0.2592,0.2585,0.2578,0.2543,0.2641,0.2641,0.2034,0.203,0.2027]},{"header":{"parameterUnit":"m.s-1","parameterCategory":2,"la1":30.2991,"la2":30.254,"lo1":-89.0895,"lo2":-89.0444,"dx":0.0017,"dy":0.0017,"nx":28,"ny":28,"refTime":"2023-01-02T15:00:00:Z","depth":"0","parameterNumber":3,"parameterNumberName":"V-component_of_CURRENTS"},"data":[0,0,0,0,0,0,0,0,0,0,0,0,0,0,0,0,0,0,0,0,0,0,0,0,0,0,0,0,0,0,0,0,0,0,0,0,0,0,0,0,0,0,0,0,0,0,0,0,0,0,0,0,0,0,0,0,0,0,-0.0012,-0.0012,0,-0.0041,-0.0042,-0.0042,-0.0061,-0.0061,-0.0061,-0.0061,-0.0127,-0.0128,-0.013,0,0,0,0,0,0,0,0,0,0,0,0,0,-0.0003,-0.0003,-0.0012,-0.0012,-0.0012,-0.0041,-0.0042,-0.0042,-0.0061,-0.0061,-0.0061,-0.0061,-0.0126,-0.0128,-0.013,0,0,0,0,0,0,0,0,0,0,0,0,0,-0.0019,-0.0003,-0.0012,-0.0024,-0.0025,-0.0041,-0.0042,-0.0043,-0.0061,-0.0061,-0.0061,-0.0061,-0.0125,-0.0128,-0.0131,-0.0148,0,0,-0.0139,-0.014,0,0,0,0,0,0,0,0,-0.0018,-0.0019,-0.0022,-0.0023,-0.0025,-0.0046,-0.0063,-0.0079,-0.0061,-0.0049,-0.0061,-0.0061,-0.0102,-0.0107,-0.0114,-0.0151,-0.0154,-0.0139,-0.0141,-0.0142,-0.0143,0,0,0,0,0,0,0,-0.0017,-0.0018,-0.0025,-0.0022,-0.0024,-0.0039,-0.0041,-0.0066,-0.0077,-0.005,-0.0051,-0.0052,-0.0103,-0.0111,-0.0116,-0.0155,-0.0139,-0.0141,-0.0143,-0.0144,-0.0185,-0.0185,0,0,0,0,0,0,-0.0008,-0.0017,-0.0024,-0.0026,-0.0019,-0.0039,-0.0041,-0.0041,-0.0076,-0.0081,-0.0052,-0.0053,-0.0107,-0.0113,-0.0118,-0.0121,-0.0142,-0.0144,-0.0146,-0.0186,-0.0185,-0.0185,0,0,0,0,0,0,-0.0008,-0.0009,-0.0023,-0.0021,-0.0024,-0.0038,-0.0038,-0.0041,-0.0051,-0.0077,-0.0083,-0.0059,-0.0107,-0.0115,-0.0136,-0.0125,-0.0146,-0.0148,-0.0186,-0.0186,-0.0185,-0.014,0,0,0,0,0,0,-0.0008,-0.0008,-0.001,-0.002,-0.0023,-0.0032,-0.0038,-0.0042,-0.0051,-0.0052,-0.0085,-0.0091,-0.0108,-0.0132,-0.0139,-0.0129,-0.015,-0.0187,-0.0186,-0.0185,-0.0142,-0.0138,-0.0134,0,0,0,0,0,-0.0007,-0.0006,-0.001,-0.0011,-0.0024,-0.0032,-0.0035,-0.0047,-0.0051,-0.0056,-0.0073,-0.009,-0.013,-0.0134,-0.0142,-0.0133,-0.0187,-0.0186,-0.0185,-0.0144,-0.0139,-0.0134,0,0,0,0,0,0,-0.0003,-0.0008,-0.0013,-0.0013,-0.0022,-0.0034,-0.004,-0.0047,-0.0065,-0.0067,-0.0092,-0.0099,-0.0113,-0.013,-0.0133,-0.014,-0.0159,-0.0159,-0.0125,-0.012,-0.0116,-0.0107,-0.0152,0,0,0,0,0,-0.0003,-0.0003,-0.0011,-0.0012,-0.0016,-0.0029,-0.0035,-0.0042,-0.0056,-0.0064,-0.0083,-0.01,-0.0114,-0.0123,-0.0143,-0.0152,-0.0173,-0.0148,-0.0144,-0.014,-0.0138,-0.0154,-0.0151,-0.0181,-0.0181,-0.0181,0,0,-0.0,-0.0004,-0.0004,-0.0012,-0.002,-0.0017,-0.0033,-0.004,-0.0035,-0.0069,-0.0073,-0.0094,-0.0115,-0.0121,-0.0128,-0.0134,-0.0145,-0.0139,-0.0136,-0.0135,-0.0153,-0.015,-0.0147,-0.018,-0.018,-0.018,0,0,0.0012,0.0,0.0007,0.0002,-0.0007,-0.0013,-0.0014,-0.0027,-0.0032,-0.0042,-0.0057,-0.0068,-0.0097,-0.0099,-0.0106,-0.0093,-0.0127,-0.01,-0.007,-0.0085,-0.0083,-0.0081,-0.0112,-0.0114,-0.0093,-0.0093,-0.0093,0,0.0016,0.0024,0.0007,0.0013,0.0016,-0.0008,0.0004,-0.0006,-0.0022,-0.0024,-0.0037,-0.0064,-0.0081,-0.0078,-0.0068,-0.0083,-0.0107,-0.0086,-0.008,-0.0078,-0.0077,-0.011,-0.0112,-0.009,-0.0091,-0.0091,-0.0091,0,0.0036,0.0041,0.0044,0.0048,0.0046,0.0049,0.004,0.0034,0.0022,0.0013,0.0003,-0.002,-0.0033,-0.0036,-0.0049,-0.0044,-0.0069,-0.0077,-0.0091,-0.0072,-0.0107,-0.011,-0.0087,-0.0088,-0.0089,-0.0089,0,0,0.0056,0.006,0.0061,0.0071,0.0066,0.0068,0.0074,0.0074,0.008,0.0056,0.0062,0.0045,0.0025,0.0016,-0.0001,-0.0009,-0.0022,-0.0037,-0.0038,-0.0067,-0.0073,-0.0075,-0.008,-0.0032,-0.0032,-0.0032,-0.0103,0,0.0081,0.0104,0.0099,0.0123,0.0135,0.012,0.0128,0.0122,0.0112,0.0106,0.0081,0.0075,0.0047,0.0045,0.003,-0.0009,-0.0027,-0.0003,-0.0088,-0.0091,-0.0095,-0.0081,-0.007,-0.013,-0.0106,-0.0107,-0.0107,0,0.0108,0.0121,0.015,0.0164,0.0167,0.0176,0.0185,0.019,0.0174,0.0167,0.0151,0.0122,0.0106,0.008,0.0019,0.0032,-0.0017,-0.005,-0.0054,-0.0073,-0.0099,-0.0145,-0.0137,-0.0287,-0.0112,-0.0112,-0.0112,0,0.0137,0.0158,0.0183,0.0188,0.0198,0.0207,0.021,0.0205,0.0225,0.0206,0.022,0.017,0.0167,0.0094,0.0031,0.0018,-0.004,-0.0069,-0.0122,-0.0124,-0.0139,-0.0141,-0.0282,-0.0115,-0.0115,-0.0115,-0.0114,0,0.0168,0.0189,0.0196,0.0211,0.0239,0.0233,0.0262,0.026,0.0271,0.0313,0.0254,0.029,0.0174,0.0131,0.0043,-0.0041,-0.0034,-0.0117,-0.0137,-0.0123,-0.0123,-0.0273,-0.0357,-0.0117,-0.0117,-0.0116,-0.0116,0,0.0196,0.0202,0.0232,0.0247,0.0254,0.0273,0.0308,0.0333,0.0339,0.0395,0.0399,0.0379,0.033,0.0208,0.0101,-0.0002,-0.0184,-0.0126,-0.0109,-0.0125,-0.0331,-0.0411,-0.0571,-0.0662,-0.0221,-0.0222,-0.0222,0,0.0213,0.0231,0.0259,0.0283,0.0291,0.032,0.0346,0.0364,0.041,0.0476,0.0516,0.0489,0.0512,0.0332,0.0133,-0.0047,-0.0179,-0.0168,-0.0188,-0.034,-0.0446,-0.0506,-0.0576,-0.0202,-0.0202,-0.0202,-0.0202,0,0.0248,0.0254,0.0279,0.0324,0.0358,0.0405,0.0452,0.0508,0.0556,0.0632,0.0745,0.0776,0.0604,0.0441,0.0168,0.0038,-0.0292,-0.0177,-0.0336,-0.0443,-0.0515,-0.0611,-0.0173,-0.0203,-0.0203,-0.0203,-0.0203,-0.0203,0.0274,0.0297,0.033,0.0375,0.0421,0.0501,0.0576,0.0657,0.0776,0.093,0.0933,0.1036,0.0738,0.038,0.0143,-0.0289,-0.0303,-0.0412,-0.0499,-0.0548,-0.063,-0.0197,-0.0242,-0.0242,-0.0242,-0.0242,-0.0242,0,0.0313,0.034,0.0383,0.0452,0.0523,0.0536,0.066,0.077,0.0954,0.1092,0.1219,0.1167,0.0785,0.0379,-0.021,-0.0542,-0.0686,-0.0724,-0.0822,-0.0882,-0.0496,-0.0488,-0.0584,-0.0583,-0.0583,-0.0583,-0.0583,-0.0583,0.0338,0.0388,0.0411,0.0533,0.0592,0.0732,0.0827,0.1001,0.1144,0.1367,0.1467,0.1506,0.1228,0.0101,-0.0673,-0.0867,-0.1113,-0.1158,-0.1305,-0.105,-0.1028,-0.1007,-0.102,-0.1225,-0.1226,-0.1652,-0.1656,-0.1659]}],[{"header":{"parameterUnit":"m.s-1","parameterCategory":2,"la1":30.2991,"la2":30.254,"lo1":-89.0895,"lo2":-89.0444,"dx":0.0017,"dy":0.0017,"nx":28,"ny":28,"refTime":"2023-01-02T15:00:00:Z","depth":"2","parameterNumber":2,"parameterNumberName":"U-component_of_CURRENTS"},"data":[0,0,0,0,0,0,0,0,0,0,0,0,0,0,0,0,0,0,0,0,0,0,0,0,0,0,0,0,0,0,0,0,0,0,0,0,0,0,0,0,0,0,0,0,0,0,0,0,0,0,0,0,0,0,0,0,0,0,0.1229,0.1229,0,0.1235,0.1235,0.1235,0.1214,0.1214,0.1213,0.1213,0.1189,0.1189,0.1189,0,0,0,0,0,0,0,0,0,0,0,0,0,0.12,0.1201,0.1229,0.1229,0.1229,0.1235,0.1235,0.1235,0.1214,0.1214,0.1213,0.1213,0.1189,0.1189,0.1189,0,0,0,0,0,0,0,0,0,0,0,0,0,0.1209,0.1201,0.1229,0.1221,0.122,0.1235,0.1235,0.1235,0.1215,0.1214,0.1213,0.1212,0.1189,0.1189,0.1189,0.1203,0,0,0.1188,0.1188,0,0,0,0,0,0,0,0,0.1208,0.121,0.1222,0.1221,0.1221,0.1224,0.1216,0.1223,0.1215,0.1215,0.1213,0.1212,0.1199,0.1198,0.12,0.1202,0.1201,0.1188,0.1188,0.1188,0.1188,0,0,0,0,0,0,0,0.1208,0.121,0.123,0.1222,0.1221,0.1217,0.1217,0.1218,0.121,0.1215,0.1214,0.1217,0.1199,0.12,0.1199,0.12,0.1188,0.1188,0.1188,0.1187,0.1267,0.127,0,0,0,0,0,0,0.1211,0.1209,0.123,0.123,0.1214,0.1218,0.1218,0.1223,0.1211,0.1209,0.1218,0.1216,0.1201,0.1199,0.1198,0.1257,0.1188,0.1187,0.1187,0.1265,0.1268,0.127,0,0,0,0,0,0,0.121,0.1212,0.123,0.1221,0.1223,0.122,0.1225,0.1223,0.123,0.1213,0.121,0.1226,0.12,0.1198,0.1213,0.1254,0.1187,0.1187,0.1263,0.1266,0.1269,0.1347,0,0,0,0,0,0,0.1209,0.1212,0.1219,0.1221,0.1223,0.125,0.1226,0.1224,0.1233,0.1231,0.122,0.1216,0.1199,0.1214,0.1213,0.1253,0.1187,0.126,0.1264,0.1268,0.1342,0.1353,0.1362,0,0,0,0,0,0.1208,0.122,0.1219,0.1222,0.1232,0.1251,0.1253,0.1246,0.1235,0.1247,0.1241,0.1217,0.1241,0.1215,0.1214,0.1254,0.1258,0.1263,0.1268,0.1337,0.1351,0.1362,0,0,0,0,0,0,0.1212,0.122,0.1218,0.1232,0.1247,0.1248,0.1259,0.1255,0.1261,0.1257,0.1236,0.1234,0.1265,0.1252,0.1224,0.1293,0.1249,0.1254,0.1303,0.1315,0.1325,0.1326,0.1187,0,0,0,0,0,0.1217,0.1228,0.1238,0.1251,0.1259,0.1261,0.1268,0.1268,0.1272,0.1273,0.1266,0.1269,0.1287,0.1292,0.1298,0.133,0.1336,0.1359,0.137,0.1378,0.138,0.1441,0.1457,0.1287,0.1287,0.1287,0,0,0.1223,0.1229,0.1235,0.1253,0.1261,0.1283,0.1264,0.1282,0.1304,0.127,0.1296,0.13,0.1303,0.1341,0.1355,0.1334,0.1433,0.1385,0.1392,0.1389,0.1448,0.1464,0.1479,0.1291,0.129,0.1289,0,0,0.1243,0.1247,0.1264,0.128,0.1299,0.1303,0.1313,0.1324,0.1334,0.136,0.1352,0.1383,0.1392,0.1415,0.1426,0.1498,0.1484,0.1503,0.1555,0.1615,0.1629,0.1641,0.1678,0.1694,0.151,0.151,0.151,0,0.1249,0.1273,0.1275,0.13,0.1316,0.1316,0.1345,0.136,0.1376,0.1395,0.1377,0.1431,0.1433,0.1498,0.1525,0.1522,0.1542,0.1505,0.1628,0.164,0.1652,0.1686,0.1702,0.1514,0.1514,0.1513,0.1513,0,0.1286,0.1306,0.1321,0.135,0.137,0.1395,0.1416,0.1439,0.1446,0.1461,0.1519,0.1531,0.1562,0.1583,0.1573,0.1665,0.1648,0.1632,0.1593,0.1673,0.1705,0.172,0.1521,0.1519,0.1518,0.1517,0,0,0.1291,0.1336,0.1341,0.1362,0.1399,0.1417,0.1463,0.1506,0.1536,0.1565,0.1615,0.1667,0.167,0.1683,0.1691,0.1747,0.1849,0.1726,0.1727,0.1757,0.1972,0.1989,0.2006,0.1856,0.1859,0.1861,0.1964,0,0.1319,0.1368,0.1388,0.1437,0.1463,0.1485,0.1524,0.1563,0.1593,0.1638,0.168,0.1723,0.1711,0.1732,0.1791,0.1825,0.1891,0.1822,0.1894,0.1896,0.1897,0.2026,0.1868,0.1949,0.1978,0.198,0.1982,0,0.1346,0.1376,0.1428,0.1477,0.1491,0.1518,0.1578,0.1616,0.1681,0.1708,0.1765,0.1782,0.1865,0.1841,0.1958,0.1913,0.1955,0.1985,0.1989,0.1986,0.1942,0.1874,0.1975,0.2007,0.2005,0.2003,0.2001,0,0.1342,0.1402,0.1441,0.146,0.1517,0.1544,0.1573,0.1634,0.1681,0.1753,0.1797,0.187,0.1926,0.1985,0.205,0.2008,0.2181,0.2124,0.2185,0.2184,0.2055,0.2039,0.2233,0.2233,0.2233,0.2232,0.2232,0,0.136,0.1389,0.1439,0.1459,0.1503,0.1543,0.1599,0.1638,0.1716,0.1785,0.1829,0.1914,0.1971,0.2067,0.2095,0.2204,0.2224,0.2226,0.2233,0.2079,0.2066,0.2106,0.209,0.2236,0.2235,0.2235,0.2234,0,0.1344,0.1382,0.1424,0.1482,0.15,0.1527,0.1605,0.1647,0.1724,0.182,0.185,0.1975,0.2105,0.217,0.2286,0.2282,0.2361,0.2399,0.2211,0.2195,0.2301,0.2288,0.2454,0.2456,0.2457,0.2459,0.246,0,0.1341,0.1361,0.1423,0.1443,0.1468,0.1517,0.1551,0.1636,0.1692,0.1868,0.1918,0.2083,0.2196,0.2373,0.2411,0.2482,0.2479,0.236,0.2259,0.2345,0.2334,0.2318,0.2303,0.2109,0.2107,0.2105,0.2104,0,0.1326,0.1346,0.1378,0.142,0.1456,0.1501,0.1562,0.1611,0.1728,0.1832,0.1994,0.2105,0.23,0.2329,0.2436,0.2439,0.2323,0.2335,0.2502,0.2088,0.2032,0.2017,0.2011,0.2091,0.2092,0.2093,0.2094,0.2094,0.1305,0.1318,0.1357,0.1393,0.1433,0.1471,0.1498,0.1584,0.1686,0.1822,0.1971,0.2089,0.2173,0.2273,0.2251,0.2228,0.2371,0.2237,0.2236,0.2238,0.2191,0.2143,0.2212,0.2214,0.2216,0.2217,0.2218,0,0.128,0.1299,0.1329,0.137,0.1391,0.143,0.1497,0.1526,0.1623,0.177,0.1899,0.1843,0.1923,0.1997,0.1971,0.1998,0.1907,0.1897,0.1754,0.1774,0.179,0.1711,0.1609,0.1606,0.1603,0.1601,0,0,0.127,0.1286,0.1303,0.1322,0.1346,0.137,0.1398,0.1456,0.1549,0.1607,0.1667,0.1847,0.1974,0.1753,0.1757,0.1683,0.1693,0.1618,0.2124,0.1979,0.199,0.2028,0.1938,0,0,0,0,0]},{"header":{"parameterUnit":"m.s-1","parameterCategory":2,"la1":30.2991,"la2":30.254,"lo1":-89.0895,"lo2":-89.0444,"dx":0.0017,"dy":0.0017,"nx":28,"ny":28,"refTime":"2023-01-02T15:00:00:Z","depth":"2","parameterNumber":3,"parameterNumberName":"V-component_of_CURRENTS"},"data":[0,0,0,0,0,0,0,0,0,0,0,0,0,0,0,0,0,0,0,0,0,0,0,0,0,0,0,0,0,0,0,0,0,0,0,0,0,0,0,0,0,0,0,0,0,0,0,0,0,0,0,0,0,0,0,0,0,0,-0.0131,-0.0131,0,-0.0168,-0.0168,-0.0169,-0.0187,-0.0187,-0.0187,-0.0187,-0.0254,-0.0256,-0.0258,0,0,0,0,0,0,0,0,0,0,0,0,0,-0.0117,-0.0117,-0.0131,-0.0131,-0.0132,-0.0168,-0.0168,-0.0169,-0.0187,-0.0187,-0.0187,-0.0187,-0.0254,-0.0256,-0.0258,0,0,0,0,0,0,0,0,0,0,0,0,0,-0.0137,-0.0117,-0.0131,-0.0144,-0.0145,-0.0168,-0.0168,-0.0169,-0.0187,-0.0187,-0.0187,-0.0187,-0.0253,-0.0256,-0.0259,-0.0281,0,0,-0.0267,-0.0269,0,0,0,0,0,0,0,0,-0.0135,-0.0137,-0.0142,-0.0143,-0.0145,-0.0171,-0.0188,-0.0208,-0.0187,-0.0173,-0.0187,-0.0186,-0.0229,-0.0233,-0.0243,-0.0284,-0.0287,-0.0268,-0.0269,-0.0271,-0.0271,0,0,0,0,0,0,0,-0.0134,-0.0136,-0.0147,-0.0142,-0.0144,-0.0161,-0.0164,-0.0192,-0.0203,-0.0174,-0.0175,-0.0177,-0.023,-0.024,-0.0244,-0.0288,-0.0268,-0.027,-0.0272,-0.0273,-0.0318,-0.0318,0,0,0,0,0,0,-0.0124,-0.0134,-0.0146,-0.0148,-0.0138,-0.0162,-0.0164,-0.0164,-0.0202,-0.0207,-0.0177,-0.0178,-0.0235,-0.0241,-0.0247,-0.0249,-0.0271,-0.0273,-0.0275,-0.0319,-0.0318,-0.0317,0,0,0,0,0,0,-0.0124,-0.0125,-0.0145,-0.0141,-0.0145,-0.0162,-0.0162,-0.0165,-0.0174,-0.0204,-0.021,-0.0182,-0.0235,-0.0243,-0.0266,-0.0253,-0.0275,-0.0277,-0.0319,-0.0318,-0.0318,-0.0271,0,0,0,0,0,0,-0.0123,-0.0125,-0.0125,-0.014,-0.0144,-0.0154,-0.0162,-0.0166,-0.0174,-0.0176,-0.021,-0.0216,-0.0235,-0.0262,-0.0269,-0.0257,-0.028,-0.032,-0.0319,-0.0318,-0.0273,-0.0269,-0.0265,0,0,0,0,0,-0.0123,-0.0121,-0.0125,-0.0127,-0.0143,-0.0153,-0.0157,-0.017,-0.0175,-0.0178,-0.0199,-0.0215,-0.026,-0.0264,-0.0273,-0.0262,-0.032,-0.0319,-0.0318,-0.0275,-0.027,-0.0265,0,0,0,0,0,0,-0.0115,-0.0123,-0.0128,-0.0129,-0.0139,-0.0156,-0.0161,-0.0169,-0.0189,-0.0191,-0.0218,-0.0226,-0.0241,-0.0259,-0.0262,-0.027,-0.0289,-0.029,-0.0254,-0.0249,-0.0245,-0.0234,-0.0282,0,0,0,0,0,-0.0114,-0.0114,-0.0125,-0.0126,-0.013,-0.0146,-0.0153,-0.016,-0.0177,-0.0185,-0.0206,-0.0226,-0.0243,-0.0252,-0.0274,-0.0285,-0.0306,-0.0279,-0.0275,-0.0271,-0.0267,-0.0285,-0.0282,-0.0313,-0.0313,-0.0313,0,0,-0.011,-0.0115,-0.0116,-0.0125,-0.0135,-0.0133,-0.015,-0.0157,-0.0153,-0.0191,-0.0196,-0.0219,-0.0244,-0.0252,-0.0259,-0.0265,-0.0275,-0.027,-0.0266,-0.0265,-0.0284,-0.0281,-0.0278,-0.0313,-0.0313,-0.0313,0,0,-0.0098,-0.0109,-0.0103,-0.0109,-0.0118,-0.0127,-0.0126,-0.0141,-0.0146,-0.0157,-0.0177,-0.0189,-0.0221,-0.0227,-0.0237,-0.0224,-0.0257,-0.0229,-0.0196,-0.0213,-0.0211,-0.0209,-0.0239,-0.024,-0.0221,-0.0221,-0.0221,0,-0.0093,-0.0086,-0.0104,-0.0098,-0.0096,-0.012,-0.0108,-0.0119,-0.0138,-0.014,-0.0152,-0.0184,-0.0204,-0.0206,-0.0197,-0.0213,-0.0236,-0.0213,-0.0208,-0.0206,-0.0205,-0.0236,-0.0238,-0.0219,-0.0219,-0.022,-0.022,0,-0.0074,-0.0069,-0.0067,-0.0064,-0.0067,-0.0064,-0.0074,-0.0079,-0.0089,-0.01,-0.0111,-0.0138,-0.0153,-0.0158,-0.0174,-0.017,-0.0195,-0.0205,-0.022,-0.0199,-0.0233,-0.0236,-0.0216,-0.0216,-0.0217,-0.0218,0,0,-0.0054,-0.0052,-0.005,-0.004,-0.0046,-0.0044,-0.0039,-0.004,-0.0033,-0.0057,-0.005,-0.0074,-0.0092,-0.0103,-0.0124,-0.0133,-0.0145,-0.0161,-0.0163,-0.0189,-0.0196,-0.0216,-0.0221,-0.0157,-0.0157,-0.0157,-0.0226,0,-0.003,-0.0008,-0.0014,0.001,0.0022,0.0007,0.0014,0.0008,-0.0001,-0.0005,-0.0034,-0.004,-0.007,-0.0072,-0.0089,-0.0131,-0.015,-0.0127,-0.0213,-0.0216,-0.0235,-0.0224,-0.02,-0.0259,-0.0229,-0.0229,-0.023,0,-0.0004,0.0008,0.0037,0.0053,0.0056,0.0065,0.0077,0.008,0.0064,0.0058,0.0043,0.0013,-0.0006,-0.0032,-0.0098,-0.0085,-0.0136,-0.0171,-0.0175,-0.021,-0.024,-0.0274,-0.0266,-0.0235,-0.0234,-0.0234,-0.0234,0,0.0027,0.0046,0.0073,0.0078,0.0088,0.0099,0.0103,0.0098,0.0116,0.01,0.0115,0.0064,0.0059,-0.0015,-0.0086,-0.0096,-0.0163,-0.0189,-0.0258,-0.0261,-0.0266,-0.0269,-0.0236,-0.0236,-0.0236,-0.0236,-0.0236,0,0.0058,0.008,0.0088,0.0104,0.0135,0.0129,0.0161,0.0159,0.017,0.021,0.0151,0.0181,0.0066,0.0016,-0.0073,-0.0169,-0.0156,-0.0253,-0.0276,-0.025,-0.0251,-0.0248,-0.0248,-0.0238,-0.0238,-0.0237,-0.0237,0,0.0088,0.0093,0.0126,0.0143,0.0152,0.0174,0.021,0.0235,0.024,0.0294,0.0298,0.0267,0.0204,0.0081,-0.0033,-0.0135,-0.0235,-0.0272,-0.0242,-0.0259,-0.0335,-0.0332,-0.0377,-0.0378,-0.0379,-0.038,-0.0381,0,0.0107,0.0125,0.0158,0.0183,0.0193,0.0225,0.0252,0.0268,0.0312,0.0368,0.0405,0.0361,0.0353,0.0157,-0.0035,-0.0219,-0.0227,-0.0324,-0.034,-0.0329,-0.0347,-0.0343,-0.0339,-0.0335,-0.0336,-0.0336,-0.0336,0,0.0144,0.0152,0.0179,0.0228,0.0264,0.0312,0.0359,0.041,0.0453,0.0513,0.0594,0.0593,0.0405,0.0226,-0.0046,-0.0165,-0.0301,-0.0336,-0.0322,-0.03,-0.0294,-0.031,-0.0307,-0.0338,-0.0338,-0.0338,-0.0337,-0.0337,0.0172,0.0197,0.0232,0.028,0.0329,0.0405,0.0468,0.0537,0.0634,0.0734,0.0722,0.0732,0.0496,0.016,-0.0069,-0.0313,-0.0309,-0.0394,-0.0391,-0.0389,-0.0368,-0.0364,-0.0418,-0.0418,-0.0418,-0.0419,-0.0419,0,0.021,0.0239,0.0285,0.0353,0.042,0.0438,0.0548,0.0617,0.0756,0.0828,0.0885,0.0679,0.0472,0.0221,-0.0146,-0.0381,-0.0391,-0.0441,-0.0402,-0.0399,-0.0396,-0.0374,-0.0427,-0.0428,-0.0429,-0.0429,0,0,0.0234,0.0283,0.0305,0.042,0.0479,0.0598,0.0677,0.077,0.0846,0.0905,0.092,0.0873,0.0567,0.0297,-0.0018,-0.0215,-0.0251,-0.0253,-0.0222,-0.0137,-0.0131,-0.0347,-0.0307,0,0,0,0,0]}],[{"header":{"parameterUnit":"m.s-1","parameterCategory":2,"la1":30.2991,"la2":30.254,"lo1":-89.0895,"lo2":-89.0444,"dx":0.0017,"dy":0.0017,"nx":28,"ny":28,"refTime":"2023-01-02T15:00:00:Z","depth":"4","parameterNumber":2,"parameterNumberName":"U-component_of_CURRENTS"},"data":[0,0,0,0,0,0,0,0,0,0,0,0,0,0,0,0,0,0,0,0,0,0,0,0,0,0,0,0,0,0,0,0,0,0,0,0,0,0,0,0,0,0,0,0,0,0,0,0,0,0,0,0,0,0,0,0,0,0,0.0836,0.0836,0,0.0854,0.0854,0.0854,0.0877,0.0877,0.0878,0.0878,0.0901,0.0901,0.0902,0,0,0,0,0,0,0,0,0,0,0,0,0,0.0812,0.0812,0.0836,0.0836,0.0836,0.0854,0.0854,0.0854,0.0877,0.0877,0.0878,0.0878,0.0901,0.0901,0.0902,0,0,0,0,0,0,0,0,0,0,0,0,0,0.0825,0.0812,0.0836,0.085,0.0851,0.0854,0.0854,0.0854,0.0877,0.0877,0.0878,0.0878,0.0901,0.0901,0.0902,0.0893,0,0,0.0903,0.0903,0,0,0,0,0,0,0,0,0.0824,0.0826,0.0847,0.0849,0.085,0.0864,0.0854,0.0867,0.0877,0.0867,0.0878,0.0879,0.0889,0.089,0.0892,0.0894,0.0895,0.0903,0.0903,0.0903,0.0903,0,0,0,0,0,0,0,0.0823,0.0825,0.0843,0.0848,0.0849,0.0852,0.0855,0.0857,0.0874,0.0868,0.087,0.0872,0.089,0.0892,0.0893,0.0895,0.0903,0.0903,0.0903,0.0904,0.096,0.0961,0,0,0,0,0,0,0.0821,0.0824,0.0842,0.0843,0.0839,0.0852,0.0855,0.0859,0.0874,0.0877,0.0871,0.0873,0.0891,0.0892,0.0894,0.0958,0.0903,0.0904,0.0904,0.0959,0.096,0.0962,0,0,0,0,0,0,0.0821,0.0823,0.0841,0.0834,0.0837,0.0852,0.0856,0.0859,0.0883,0.0877,0.088,0.0895,0.0891,0.0893,0.092,0.0956,0.0904,0.0904,0.0957,0.0959,0.0961,0.1039,0,0,0,0,0,0,0.082,0.0822,0.0838,0.0834,0.0837,0.086,0.0856,0.0859,0.0882,0.0885,0.0898,0.0899,0.0892,0.0919,0.092,0.0956,0.0904,0.0956,0.0958,0.0961,0.1034,0.1043,0.105,0,0,0,0,0,0.0819,0.0836,0.0839,0.0842,0.0854,0.0861,0.0863,0.0875,0.0883,0.0898,0.0911,0.09,0.0935,0.0921,0.0921,0.0958,0.0955,0.0958,0.096,0.1031,0.1041,0.105,0,0,0,0,0,0,0.0837,0.084,0.0843,0.0862,0.0868,0.0865,0.0885,0.0888,0.0909,0.092,0.0914,0.0916,0.0951,0.0942,0.0926,0.098,0.0944,0.0947,0.0997,0.1007,0.1015,0.1017,0.0905,0,0,0,0,0,0.0846,0.0861,0.086,0.0878,0.0884,0.0888,0.0898,0.0904,0.0914,0.0925,0.093,0.0942,0.0959,0.0974,0.0977,0.1009,0.1012,0.1032,0.104,0.1047,0.105,0.108,0.1091,0.0971,0.0971,0.0971,0,0,0.0856,0.0862,0.0871,0.0883,0.0891,0.0907,0.0897,0.0917,0.0938,0.0923,0.0961,0.0966,0.0971,0.1006,0.1021,0.1009,0.1088,0.1051,0.1057,0.1055,0.1085,0.1096,0.1107,0.0973,0.0973,0.0973,0,0,0.0878,0.0892,0.0909,0.0919,0.0935,0.0937,0.0948,0.0956,0.0972,0.1002,0.1,0.1026,0.1048,0.106,0.1069,0.1121,0.1122,0.1131,0.1183,0.1214,0.1224,0.1233,0.1277,0.1289,0.1143,0.1143,0.1143,0,0.0893,0.0912,0.0916,0.0935,0.095,0.0955,0.0976,0.0992,0.1009,0.1029,0.1026,0.1073,0.1072,0.1123,0.1146,0.1139,0.1165,0.1149,0.1225,0.1234,0.1242,0.1284,0.1296,0.1147,0.1147,0.1146,0.1146,0,0.0917,0.0943,0.0956,0.0982,0.0999,0.102,0.1035,0.1061,0.108,0.1094,0.1146,0.115,0.1181,0.1191,0.1188,0.1251,0.1255,0.1226,0.1203,0.1259,0.1299,0.1311,0.1153,0.1152,0.1151,0.115,0,0,0.092,0.0964,0.0972,0.0992,0.1026,0.1038,0.1084,0.112,0.116,0.1184,0.1238,0.1267,0.1276,0.1286,0.129,0.132,0.1401,0.131,0.131,0.1357,0.1496,0.1421,0.1426,0.1397,0.1399,0.14,0.1511,0,0.0939,0.0978,0.1001,0.1047,0.1066,0.1095,0.1135,0.1172,0.1212,0.1264,0.1288,0.1337,0.1313,0.1345,0.1372,0.1393,0.1432,0.1375,0.1431,0.1433,0.1361,0.1436,0.1406,0.152,0.1522,0.1524,0.1526,0,0.0951,0.0977,0.1021,0.1076,0.1089,0.1123,0.1192,0.123,0.1304,0.134,0.1397,0.1418,0.1482,0.1443,0.1518,0.1491,0.1503,0.151,0.1514,0.142,0.1377,0.1445,0.1546,0.1544,0.1543,0.1542,0.154,0,0.0933,0.0992,0.1029,0.1046,0.1107,0.1144,0.1184,0.1256,0.1302,0.1401,0.1449,0.1517,0.1564,0.1591,0.1614,0.1583,0.169,0.1639,0.1584,0.158,0.1579,0.1567,0.1686,0.1686,0.1685,0.1685,0.1685,0,0.0931,0.0963,0.1027,0.1044,0.1095,0.1145,0.1213,0.1268,0.136,0.142,0.1489,0.1545,0.1605,0.1666,0.1666,0.1676,0.1736,0.1611,0.1605,0.1612,0.1603,0.1588,0.1576,0.1689,0.1688,0.1688,0.1687,0,0.0899,0.0944,0.0985,0.1057,0.1085,0.112,0.1218,0.1265,0.1365,0.145,0.1489,0.16,0.1679,0.1732,0.1794,0.1739,0.1754,0.1737,0.1781,0.1773,0.1612,0.1602,0.1686,0.1684,0.1683,0.1682,0.1681,0,0.0883,0.0901,0.0979,0.1003,0.1039,0.1104,0.1144,0.1252,0.1305,0.1464,0.1494,0.1624,0.168,0.1723,0.1774,0.1805,0.1765,0.1771,0.1649,0.1627,0.1614,0.1606,0.1598,0.1679,0.1678,0.1678,0.1677,0,0.0844,0.0879,0.091,0.096,0.1007,0.1055,0.1129,0.1164,0.1289,0.1391,0.1474,0.1531,0.1623,0.1674,0.1726,0.1726,0.1765,0.1755,0.1756,0.1641,0.1619,0.1605,0.1599,0.1672,0.1673,0.1674,0.1674,0,0.0813,0.0821,0.0866,0.0906,0.0959,0.0993,0.104,0.1106,0.1176,0.1344,0.1371,0.15,0.161,0.1636,0.1677,0.1691,0.164,0.1565,0.1575,0.1581,0.1492,0.1445,0.1459,0,0,0,0,0,0.0774,0.078,0.0809,0.085,0.0901,0.0942,0.1022,0.1074,0.1194,0.122,0.1296,0.1373,0.1451,0.1519,0.1509,0.1624,0.1645,0.1605,0.1561,0.1645,0.165,0.1553,0,0,0,0,0,0,0.0746,0.077,0.0784,0.0798,0.0822,0.0877,0.0928,0.101,0.1029,0.1154,0.1201,0.1297,0.139,0.145,0.1488,0.1508,0.1454,0.1687,0.1684,0.1641,0.1647,0.1651,0.1554,0,0,0,0,0]},{"header":{"parameterUnit":"m.s-1","parameterCategory":2,"la1":30.2991,"la2":30.254,"lo1":-89.0895,"lo2":-89.0444,"dx":0.0017,"dy":0.0017,"nx":28,"ny":28,"refTime":"2023-01-02T15:00:00:Z","depth":"4","parameterNumber":3,"parameterNumberName":"V-component_of_CURRENTS"},"data":[0,0,0,0,0,0,0,0,0,0,0,0,0,0,0,0,0,0,0,0,0,0,0,0,0,0,0,0,0,0,0,0,0,0,0,0,0,0,0,0,0,0,0,0,0,0,0,0,0,0,0,0,0,0,0,0,0,0,-0.0256,-0.0256,0,-0.0305,-0.0306,-0.0306,-0.0349,-0.035,-0.035,-0.035,-0.043,-0.0432,-0.0434,0,0,0,0,0,0,0,0,0,0,0,0,0,-0.0209,-0.021,-0.0255,-0.0256,-0.0257,-0.0305,-0.0306,-0.0306,-0.0349,-0.035,-0.035,-0.0351,-0.043,-0.0432,-0.0434,0,0,0,0,0,0,0,0,0,0,0,0,0,-0.0242,-0.021,-0.0255,-0.0283,-0.0286,-0.0305,-0.0306,-0.0307,-0.0349,-0.035,-0.035,-0.0351,-0.0429,-0.0432,-0.0434,-0.0437,0,0,-0.0442,-0.0443,0,0,0,0,0,0,0,0,-0.024,-0.0243,-0.0279,-0.0281,-0.0285,-0.0321,-0.0319,-0.0352,-0.0349,-0.0326,-0.035,-0.0351,-0.0396,-0.0401,-0.0409,-0.0441,-0.0445,-0.0442,-0.0444,-0.0445,-0.0446,0,0,0,0,0,0,0,-0.0237,-0.0242,-0.0276,-0.0279,-0.0283,-0.0297,-0.0302,-0.0325,-0.0358,-0.0328,-0.0331,-0.0335,-0.0398,-0.0407,-0.0412,-0.0446,-0.0442,-0.0444,-0.0446,-0.0447,-0.0528,-0.0528,0,0,0,0,0,0,-0.0229,-0.0239,-0.0274,-0.0277,-0.0262,-0.0297,-0.0303,-0.0309,-0.0357,-0.0364,-0.0335,-0.0337,-0.0402,-0.0409,-0.0415,-0.0447,-0.0445,-0.0447,-0.0449,-0.0527,-0.0528,-0.0528,0,0,0,0,0,0,-0.0227,-0.0231,-0.0272,-0.0259,-0.0265,-0.0297,-0.0304,-0.031,-0.0326,-0.0361,-0.037,-0.0345,-0.0403,-0.0411,-0.0449,-0.045,-0.0449,-0.0451,-0.0526,-0.0527,-0.0528,-0.0496,0,0,0,0,0,0,-0.0226,-0.0231,-0.0232,-0.0258,-0.0265,-0.0283,-0.0303,-0.031,-0.0327,-0.0331,-0.0373,-0.0381,-0.0404,-0.0445,-0.0452,-0.0454,-0.0453,-0.0526,-0.0527,-0.0528,-0.0497,-0.0496,-0.0496,0,0,0,0,0,-0.0224,-0.0221,-0.0231,-0.0236,-0.0266,-0.0283,-0.0288,-0.0314,-0.0327,-0.0332,-0.037,-0.038,-0.0457,-0.0448,-0.0456,-0.0458,-0.0525,-0.0526,-0.0528,-0.0497,-0.0496,-0.0496,0,0,0,0,0,0,-0.0203,-0.0226,-0.0238,-0.0243,-0.0262,-0.029,-0.0294,-0.0313,-0.0346,-0.0352,-0.0389,-0.0399,-0.0433,-0.0452,-0.0442,-0.0486,-0.0492,-0.0495,-0.0466,-0.0466,-0.0465,-0.0428,-0.0455,0,0,0,0,0,-0.0197,-0.0202,-0.0227,-0.0231,-0.0238,-0.0267,-0.0277,-0.0295,-0.0325,-0.034,-0.0372,-0.0409,-0.0442,-0.046,-0.0489,-0.0512,-0.0514,-0.052,-0.0519,-0.0518,-0.0494,-0.0513,-0.0511,-0.0533,-0.0533,-0.0533,0,0,-0.0192,-0.0203,-0.0208,-0.0227,-0.0243,-0.0247,-0.0275,-0.0288,-0.0296,-0.0343,-0.0367,-0.0407,-0.0449,-0.0478,-0.0494,-0.0495,-0.0515,-0.052,-0.0519,-0.0495,-0.0514,-0.0511,-0.0509,-0.0533,-0.0533,-0.0533,0,0,-0.0179,-0.0191,-0.019,-0.0201,-0.022,-0.0234,-0.0238,-0.0269,-0.0286,-0.0314,-0.0354,-0.0393,-0.044,-0.047,-0.0492,-0.0505,-0.0512,-0.052,-0.0484,-0.0503,-0.0501,-0.0499,-0.0497,-0.0495,-0.0518,-0.0518,-0.0518,0,-0.0172,-0.0174,-0.0193,-0.0192,-0.0195,-0.0226,-0.0223,-0.0242,-0.0284,-0.0292,-0.0316,-0.0387,-0.0431,-0.0461,-0.0472,-0.05,-0.0504,-0.0482,-0.05,-0.0498,-0.0496,-0.0495,-0.0493,-0.0517,-0.0517,-0.0517,-0.0517,0,-0.0159,-0.016,-0.0157,-0.0165,-0.017,-0.0173,-0.0194,-0.0206,-0.0231,-0.025,-0.0285,-0.0348,-0.0383,-0.0416,-0.0449,-0.0464,-0.0468,-0.0497,-0.0494,-0.0491,-0.0492,-0.049,-0.0515,-0.0515,-0.0516,-0.0516,0,0,-0.0146,-0.0149,-0.0148,-0.014,-0.0154,-0.0153,-0.0158,-0.0167,-0.0161,-0.021,-0.0207,-0.0285,-0.0312,-0.0337,-0.0391,-0.0415,-0.0424,-0.0446,-0.0448,-0.043,-0.0446,-0.045,-0.0449,-0.0456,-0.0455,-0.0455,-0.045,0,-0.0132,-0.0117,-0.0125,-0.0107,-0.0097,-0.0113,-0.0109,-0.0119,-0.0138,-0.0143,-0.0199,-0.0222,-0.0284,-0.0304,-0.0338,-0.0402,-0.0418,-0.0421,-0.0462,-0.0463,-0.0456,-0.0447,-0.0454,-0.0449,-0.0448,-0.0448,-0.0448,0,-0.0117,-0.0105,-0.0085,-0.0063,-0.006,-0.0054,-0.0038,-0.0041,-0.0053,-0.0063,-0.0089,-0.0129,-0.0173,-0.0228,-0.0306,-0.0303,-0.0362,-0.0412,-0.0414,-0.042,-0.0464,-0.0455,-0.0445,-0.0446,-0.0446,-0.0446,-0.0446,0,-0.0088,-0.0074,-0.0052,-0.0048,-0.0034,-0.0023,-0.0017,-0.0018,-0.0004,-0.0012,0.0001,-0.0052,-0.008,-0.0152,-0.0261,-0.0279,-0.034,-0.038,-0.0432,-0.0432,-0.0443,-0.0445,-0.042,-0.0421,-0.0421,-0.0421,-0.0421,0,-0.0064,-0.0046,-0.0037,-0.0023,0.0015,0.001,0.0047,0.0049,0.0062,0.009,0.0043,0.0047,-0.0065,-0.012,-0.0217,-0.031,-0.0304,-0.0406,-0.0429,-0.0431,-0.0433,-0.0441,-0.0444,-0.042,-0.042,-0.042,-0.042,0,-0.0039,-0.0036,-0.0005,0.0016,0.0029,0.0054,0.0092,0.012,0.0127,0.0162,0.0167,0.0127,0.0051,-0.0056,-0.0176,-0.0252,-0.0344,-0.0383,-0.035,-0.0375,-0.043,-0.0431,-0.0419,-0.0419,-0.0419,-0.0419,-0.0419,0,-0.0024,-0.0008,0.0026,0.0053,0.0062,0.0099,0.0131,0.0151,0.0182,0.0206,0.0227,0.0175,0.0129,-0.0012,-0.0148,-0.0299,-0.0344,-0.0371,-0.0421,-0.0404,-0.0428,-0.043,-0.0431,-0.0419,-0.0419,-0.0419,-0.0419,0,0.0005,0.0012,0.0038,0.0087,0.0124,0.0175,0.0216,0.0249,0.0274,0.0284,0.0293,0.022,0.0135,-0.0001,-0.0119,-0.0241,-0.0338,-0.0372,-0.0374,-0.0421,-0.0405,-0.0429,-0.043,-0.0419,-0.0419,-0.0419,-0.0419,0,0.0025,0.0046,0.0075,0.0121,0.0172,0.0229,0.0253,0.0291,0.0323,0.0343,0.0341,0.0251,0.0194,0.0029,-0.0083,-0.0195,-0.024,-0.0277,-0.0284,-0.0286,-0.0267,-0.0229,-0.019,0,0,0,0,0,0.0039,0.0062,0.0108,0.0156,0.0209,0.0235,0.0302,0.0322,0.0345,0.0364,0.0358,0.028,0.0125,0.0055,-0.0058,-0.0113,-0.0276,-0.025,-0.0326,-0.042,-0.042,-0.0424,0,0,0,0,0,0,0.0049,0.0086,0.0107,0.0174,0.0207,0.0268,0.031,0.0332,0.0343,0.0352,0.0273,0.0243,0.0085,0.0181,-0.0066,-0.0101,-0.0165,-0.0325,-0.0327,-0.042,-0.042,-0.042,-0.0424,0,0,0,0,0]}]]